Voltar ao catálogo

SL-14 R/B

AtivoPO
NORAD 22693·ROCKET BODY·🇷🇺 Russia

Lançado Jun 24, 1993 de Plesetsk Cosmodrome

Loading…

Próximas Passagens (próximas 24 horas)

TLE

AtualizadoSource: Space-Track

Época: Sep 14, 2026, 22:17 UTC

1 22693U 93038G   26257.92874001  .00000004  00000-0 -38987-4 0  9992
2 22693  82.5830 293.2512 0046860 122.7342 351.8457 12.54835912522270

Acompanhe SL-14 R/B em tempo real com AllMySat

Download on the App Store